When you browse on this site, cookies collect data to enhance your experience and personalize the content and advertising you see.
Visit our Privacy Policy to learn more. By continuing to use the site, you agree to this use of cookies and data.
  • In Austria
  • List of Countries
  • For 7 days
  • Water Temperature
  • Satellite Maps
  • Weather Map
  • News
  • Weather Widgets
  • user-avatar
    Login

    Hourly Weather Bialuty

    Today, 21 February, Thursday

    Time Temperature Precipitation Wind Pressure Humidity
    00:00 +1°C° 0 mm 4 mps 758 mmHg 85%
    01:00 +2°C° 0 mm 3 mps 758 mmHg 90%
    02:00 +2°C° 0 mm 3 mps 758 mmHg 90%
    03:00 +2°C° 0 mm 3 mps 758 mmHg 90%
    04:00 +2°C° 0 mm 3 mps 758 mmHg 91%
    05:00 +2°C° 0 mm 3 mps 758 mmHg 91%
    06:00 +2°C° 0 mm 3 mps 758 mmHg 92%
    07:00 +2°C° 0 mm 3 mps 758 mmHg 93%
    08:00 +3°C° 0.1 mm 4 mps 757 mmHg 91%
    09:00 +4°C° 0.1 mm 4 mps 757 mmHg 89%
    10:00 +3°C° 0.1 mm 5 mps 757 mmHg 88%
    11:00 +3°C° 0.6 mm 5 mps 757 mmHg 87%
    12:00 +5°C° 0.6 mm 5 mps 757 mmHg 86%
    13:00 +5°C° 0.6 mm 5 mps 757 mmHg 85%
    14:00 +5°C° 0.9 mm 5 mps 756 mmHg 86%
    15:00 +3°C° 0.9 mm 5 mps 756 mmHg 87%
    16:00 +3°C° 0.9 mm 5 mps 756 mmHg 88%
    17:00 +3°C° 0.7 mm 5 mps 756 mmHg 89%
    18:00 +3°C° 0.7 mm 5 mps 756 mmHg 90%
    19:00 +4°C° 0.7 mm 4 mps 755 mmHg 91%
    20:00 +4°C° 0.6 mm 4 mps 755 mmHg 92%
    21:00 +4°C° 0.6 mm 4 mps 755 mmHg 93%
    22:00 +4°C° 0.6 mm 3 mps 755 mmHg 94%
    23:00 +2°C° 0.7 mm 5 mps 756 mmHg 91%

    Tomorrow, 22 February, Friday

    Time Temperature Precipitation Wind Pressure Humidity
    00:00 -1°C° 0.7 mm 6 mps 756 mmHg 88%
    01:00 -2°C° 0.7 mm 7 mps 757 mmHg 86%
    02:00 -3°C° 0.1 mm 7 mps 758 mmHg 82%
    03:00 -3°C° 0.1 mm 7 mps 759 mmHg 78%
    04:00 -4°C° 0.1 mm 7 mps 760 mmHg 74%
    05:00 -5°C° 0 mm 6 mps 761 mmHg 70%
    06:00 -5°C° 0 mm 6 mps 763 mmHg 66%
    07:00 -6°C° 0 mm 6 mps 764 mmHg 62%
    08:00 -6°C° 0 mm 6 mps 765 mmHg 57%
    09:00 -5°C° 0 mm 6 mps 766 mmHg 51%
    10:00 -5°C° 0 mm 6 mps 767 mmHg 45%
    11:00 -5°C° 0 mm 6 mps 768 mmHg 44%
    12:00 -4°C° 0 mm 5 mps 769 mmHg 43%
    13:00 -4°C° 0 mm 5 mps 769 mmHg 42%
    14:00 -4°C° 0 mm 5 mps 769 mmHg 42%
    15:00 -4°C° 0 mm 5 mps 770 mmHg 42%
    16:00 -4°C° 0 mm 5 mps 770 mmHg 42%
    17:00 -4°C° 0 mm 4 mps 770 mmHg 44%
    18:00 -4°C° 0 mm 4 mps 771 mmHg 45%
    19:00 -5°C° 0 mm 4 mps 772 mmHg 47%
    20:00 -5°C° 0 mm 4 mps 772 mmHg 45%
    21:00 -5°C° 0 mm 4 mps 772 mmHg 44%
    22:00 -5°C° 0 mm 4 mps 773 mmHg 42%
    23:00 -5°C° 0 mm 3 mps 773 mmHg 43%

    Day after tomorrow, 23 February, Saturday

    Time Temperature Precipitation Wind Pressure Humidity
    00:00 -5°C° 0 mm 3 mps 773 mmHg 43%
    01:00 -5°C° 0 mm 3 mps 774 mmHg 44%
    02:00 -5°C° 0 mm 3 mps 773 mmHg 46%
    03:00 -5°C° 0 mm 2 mps 773 mmHg 47%
    04:00 -5°C° 0 mm 2 mps 773 mmHg 49%
    05:00 -5°C° 0 mm 2 mps 773 mmHg 50%
    06:00 -5°C° 0 mm 2 mps 774 mmHg 51%
    07:00 -5°C° 0 mm 2 mps 774 mmHg 52%
    08:00 -4°C° 0 mm 2 mps 774 mmHg 47%
    09:00 -4°C° 0 mm 2 mps 774 mmHg 42%
    10:00 -3°C° 0 mm 2 mps 775 mmHg 37%
    11:00 -2°C° 0 mm 2 mps 774 mmHg 34%
    12:00 -2°C° 0 mm 2 mps 774 mmHg 31%
    13:00 -1°C° 0 mm 2 mps 773 mmHg 28%
    14:00 -1°C° 0 mm 2 mps 773 mmHg 29%
    15:00 -1°C° 0 mm 2 mps 773 mmHg 31%
    16:00 -1°C° 0 mm 2 mps 773 mmHg 32%
    17:00 0°C° 0 mm 1 mps 773 mmHg 35%
    18:00 0°C° 0 mm 1 mps 773 mmHg 37%
    19:00 -1°C° 0 mm 1 mps 772 mmHg 40%
    20:00 -1°C° 0 mm 1 mps 772 mmHg 39%
    21:00 0°C° 0 mm 1 mps 772 mmHg 39%
    22:00 0°C° 0 mm 1 mps 772 mmHg 39%
    23:00 -2°C° 0 mm 2 mps 772 mmHg 40%

    24 February, Sunday

    Time Temperature Precipitation Wind Pressure Humidity
    00:00 -2°C° 0 mm 2 mps 772 mmHg 40%
    01:00 -2°C° 0 mm 2 mps 771 mmHg 41%
    02:00 -2°C° 0 mm 2 mps 771 mmHg 41%
    03:00 -2°C° 0 mm 3 mps 770 mmHg 42%
    04:00 -2°C° 0 mm 3 mps 770 mmHg 42%
    05:00 -4°C° 0 mm 3 mps 770 mmHg 43%
    06:00 -4°C° 0 mm 3 mps 770 mmHg 43%
    07:00 -4°C° 0 mm 3 mps 769 mmHg 43%
    08:00 -2°C° 0 mm 3 mps 769 mmHg 41%
    09:00 -1°C° 0 mm 3 mps 769 mmHg 39%
    10:00 0°C° 0 mm 3 mps 769 mmHg 37%
    11:00 +1°C° 0 mm 3 mps 769 mmHg 39%
    12:00 +1°C° 0 mm 3 mps 768 mmHg 41%
    13:00 +2°C° 0 mm 3 mps 768 mmHg 43%
    14:00 +3°C° 0 mm 2 mps 768 mmHg 48%
    15:00 +3°C° 0 mm 2 mps 768 mmHg 54%
    16:00 +2°C° 0 mm 2 mps 767 mmHg 59%
    17:00 +3°C° 0 mm 1 mps 767 mmHg 64%
    18:00 +2°C° 0 mm 1 mps 767 mmHg 69%
    19:00 +1°C° 0 mm 1 mps 767 mmHg 74%
    20:00 +1°C° 0 mm 1 mps 767 mmHg 77%
    21:00 +1°C° 0 mm 1 mps 768 mmHg 80%
    22:00 +1°C° 0 mm 1 mps 768 mmHg 84%
    23:00 +1°C° 0 mm 1 mps 768 mmHg 86%

    25 February, Monday

    Time Temperature Precipitation Wind Pressure Humidity
    00:00 +1°C° 0 mm 1 mps 767 mmHg 88%
    01:00 +1°C° 0 mm 1 mps 767 mmHg 90%
    02:00 +1°C° 0 mm 1 mps 767 mmHg 91%
    03:00 +1°C° 0 mm 1 mps 767 mmHg 92%
    04:00 +1°C° 0 mm 1 mps 767 mmHg 93%
    05:00 +1°C° 0 mm 1 mps 767 mmHg 94%
    06:00 +1°C° 0 mm 1 mps 767 mmHg 94%
    07:00 +1°C° 0 mm 1 mps 768 mmHg 95%
    08:00 +1°C° 0 mm 2 mps 768 mmHg 92%
    09:00 +2°C° 0 mm 2 mps 769 mmHg 89%
    10:00 +3°C° 0 mm 2 mps 769 mmHg 87%
    11:00 +4°C° 0 mm 2 mps 769 mmHg 83%
    12:00 +4°C° 0 mm 2 mps 769 mmHg 79%
    13:00 +6°C° 0 mm 1 mps 769 mmHg 76%
    14:00 +6°C° 0 mm 1 mps 769 mmHg 77%
    15:00 +5°C° 0 mm 2 mps 768 mmHg 78%
    16:00 +5°C° 0 mm 2 mps 768 mmHg 79%
    17:00 +4°C° 0 mm 2 mps 768 mmHg 82%
    18:00 +3°C° 0 mm 2 mps 768 mmHg 84%
    19:00 +2°C° 0 mm 2 mps 769 mmHg 87%
    20:00 +1°C° 0 mm 2 mps 769 mmHg 87%
    21:00 +2°C° 0 mm 1 mps 768 mmHg 86%
    22:00 +1°C° 0 mm 1 mps 768 mmHg 86%
    23:00 +1°C° 0 mm 1 mps 768 mmHg 86%

    26 February, Tuesday

    Time Temperature Precipitation Wind Pressure Humidity
    00:00 +1°C° 0 mm 1 mps 768 mmHg 85%
    01:00 +1°C° 0 mm 1 mps 767 mmHg 85%
    02:00 -1°C° 0 mm 2 mps 767 mmHg 85%
    03:00 -1°C° 0 mm 2 mps 766 mmHg 85%
    04:00 -1°C° 0 mm 3 mps 765 mmHg 85%
    05:00 0°C° 0 mm 3 mps 765 mmHg 85%
    06:00 -1°C° 0 mm 4 mps 764 mmHg 85%
    07:00 -1°C° 0 mm 4 mps 764 mmHg 85%
    08:00 +1°C° 0 mm 4 mps 763 mmHg 83%
    09:00 +2°C° 0 mm 5 mps 763 mmHg 80%
    10:00 +3°C° 0 mm 5 mps 762 mmHg 77%
    11:00 +4°C° 0 mm 6 mps 762 mmHg 73%
    12:00 +5°C° 0 mm 6 mps 761 mmHg 70%
    13:00 +7°C° 0 mm 6 mps 761 mmHg 66%
    14:00 +7°C° 0 mm 6 mps 760 mmHg 67%
    15:00 +7°C° 0 mm 5 mps 760 mmHg 68%
    16:00 +6°C° 0 mm 5 mps 760 mmHg 69%
    17:00 +5°C° 0 mm 5 mps 760 mmHg 74%
    18:00 +4°C° 0 mm 4 mps 760 mmHg 80%
    19:00 +3°C° 0 mm 4 mps 760 mmHg 85%
    20:00 +3°C° 0 mm 4 mps 760 mmHg 87%
    21:00 +1°C° 0 mm 4 mps 761 mmHg 89%
    22:00 0°C° 0 mm 4 mps 761 mmHg 90%
    23:00 0°C° 0 mm 4 mps 761 mmHg 90%
    Show more